Location: Iesi
(43.5167°N, 13.2333°E)
Time: 02:16:55
(UTC+00:00)

COSMOS 2406 - Pass Details

Date: 08 August 2020
Orbit: 845 x 862 km, 71.0° (Epoch: 19 September)

Event Time Altitude Azimuth Distance (km) Brightness Sun altitude
Rises 19:45:44 0° 211° (SSW) 3,424 6.3 -14.1°
Reaches altitude 10° 19:48:13 10° 214° (SW) 2,490 5.6 -14.5°
Maximum altitude 19:53:54 67° 297° (WNW) 927 3.6 -15.3°
Drops below altitude 10° 19:59:38 10° 20° (NNE) 2,496 5.9 -16.1°
Sets 20:02:07 0° 23° (NNE) 3,433 6.6 -16.4°
